Weather in Nizovoye

Russia / Omsk Oblast     56°23′35″N   75°51′22″E
temp.,
°C
wind,
m/s
gust,
m/s
humid.,
%
clouds,
%
prec.,
mm/h
press.,
hPa
HPBL,
m
9 march, tue
tue900:00−12wsw51192100 0.1 1014478
03:00−15sw499696 0.0 1015240
06:00−15ssw4119597 0.1 1016415
09:00−13ssw51193100 0.1 1016502
12:00−11ssw61093100 0.2 1016506
15:00−9ssw61192100 0.1 1015560
18:00−9ssw71392100 0.4 1013721
21:00−8sw71492100 0.4 1012792
10 march, wed
wed1000:00−9sw61392100 0.6 1012668
03:00−9sw41094100 0.2 1012444
06:00−10sw3896100 0.3 1013265
09:00−11ssw2497100 0.1 1012168
12:00−8s2394100 0.1 1011291
15:00−7ese3494100 0.1 1008375
18:00−8e4796100 1.8 1004385
21:00−8ene3796100 2.6 1001379
11 march, thu
thu1100:00−9n2296100 3.2 99872
03:00−10w3596100 0.4 1000133
06:00−11wsw369697 0.4 1002161
09:00−10ssw489491 0.3 1003349
12:00−7sw7109195 0.5 1004746
15:00−8sw71089100 0.2 1006885
18:00−10ssw61189100 0.3 1006837
21:00−11ssw31095100 0.1 1006439
12 march, fri
fri1200:00−13ssw239799 0.2 100577
03:00−16sw389693 0.1 1005237
06:00−18sw499597 0.2 1006409
09:00−18sw51093100 0.1 1008597
12:00−18wsw6989100 0.1 1010744
15:00−19wsw6989100 0.1 1013841
18:00−20w51090100 0.2 1016741
21:00−22w41195100 0.0 1019329
13 march, sat
sat1300:00−25wsw379567 0.0 1022132
03:00−27sw37950 0.0 1023109
06:00−25sw4109910 0.0 1023187
09:00−20sw5997100 0.0 1023302
12:00−15sw5994100 0.1 1023403
15:00−12sw5993100 0.1 1024510
18:00−13sw51093100 0.1 1023459
21:00−15sw41096100 0.1 1024312